{"data":{"norad_id":64425,"epoch":"2026-09-20T11:49:19.014816Z","epoch_age_seconds":135758,"freshness":"FRESH","line1":"1 64425U 25129P   26263.49258119  .00006585  00000+0  23328-3 0  9992","line2":"2 64425  70.0014 301.0223 0003332 264.3608  95.7188 15.29586454 70527","mean_motion":15.29586454,"eccentricity":0.0003332,"inclination_deg":70.0014,"raan_deg":301.0223,"arg_perigee_deg":264.3608,"mean_anomaly_deg":95.7188,"bstar":0.00023328,"rev_number":7052,"period_min":94.14309313699,"perigee_km":474.76347199443,"apogee_km":479.33176702487,"semimajor_km":6855.1846195096,"source":"CELESTRAK","updated_at":"2026-09-21T09:00:35.348504Z"}}